,,PressureMeas_1m,,PRMeasQMR101_1,,RHStat155_1m_1,,SRMeasQMS101R_1m,,TAStat155_1m_1,,GenWind_1,,GenWind_1,
2018-10-26, 00:00:06,VALID,920.265,VALID,0.0,VALID,98.967,VALID,0.014,VALID,20.087,VALID,92.0,VALID,0.833,
2018-10-26, 00:01:06,VALID,920.25,VALID,0.0,VALID,98.943,VALID,0.019,VALID,20.074,VALID,93.0,VALID,0.854,
2018-10-26, 00:02:06,VALID,920.217,VALID,0.0,VALID,98.962,VALID,0.024,VALID,20.069,VALID,95.0,VALID,0.811,
2018-10-26, 00:03:06,VALID,920.214,VALID,0.0,VALID,98.963,VALID,0.028,VALID,20.072,VALID,98.0,VALID,1.03,
2018-10-26, 00:04:06,VALID,920.19,VALID,0.0,VALID,98.943,VALID,0.021,VALID,20.069,VALID,92.0,VALID,0.576,
2018-10-26, 00:05:06,VALID,920.159,VALID,0.0,VALID,98.942,VALID,0.027,VALID,20.064,VALID,99.0,VALID,0.809,
2018-10-26, 00:06:06,VALID,920.142,VALID,0.0,VALID,98.896,VALID,0.015,VALID,20.053,VALID,107.0,VALID,0.784,
2018-10-26, 00:07:06,VALID,920.114,VALID,0.0,VALID,98.887,VALID,0.007,VALID,20.053,VALID,107.0,VALID,0.622,
2018-10-26, 00:08:06,VALID,920.094,VALID,0.0,VALID,98.894,VALID,0.018,VALID,20.052,VALID,108.0,VALID,0.688,
2018-10-26, 00:09:06,VALID,920.09,VALID,0.0,VALID,98.904,VALID,-0.019,VALID,20.048,VALID,106.0,VALID,0.867,
2018-10-26, 00:10:06,VALID,920.09,VALID,0.0,VALID,98.898,VALID,-0.042,VALID,20.039,VALID,104.0,VALID,0.794,
2018-10-26, 00:11:06,VALID,920.087,VALID,0.0,VALID,98.918,VALID,-0.041,VALID,20.036,VALID,100.0,VALID,0.516,
2018-10-26, 00:12:06,VALID,920.081,VALID,0.0,VALID,98.906,VALID,-0.039,VALID,20.038,VALID,103.0,VALID,0.746,
2018-10-26, 00:13:06,VALID,920.056,VALID,0.0,VALID,98.896,VALID,-0.04,VALID,20.022,VALID,108.0,VALID,0.72,
2018-10-26, 00:14:06,VALID,920.061,VALID,0.0,VALID,98.892,VALID,-0.058,VALID,20.023,VALID,99.0,VALID,0.474,
2018-10-26, 00:15:06,VALID,920.037,VALID,0.0,VALID,98.891,VALID,-0.042,VALID,20.033,VALID,87.0,VALID,0.152,
2018-10-26, 00:16:06,VALID,920.023,VALID,0.0,VALID,98.902,VALID,-0.032,VALID,20.044,VALID,74.0,VALID,0.27,
2018-10-26, 00:17:06,VALID,920.009,VALID,0.0,VALID,98.876,VALID,-0.027,VALID,20.046,VALID,66.0,VALID,0.332,
2018-10-26, 00:18:06,VALID,919.989,VALID,0.0,VALID,98.885,VALID,-0.048,VALID,20.064,VALID,66.0,VALID,0.416,
2018-10-26, 00:19:06,VALID,919.986,VALID,0.0,VALID,98.822,VALID,-0.052,VALID,20.034,VALID,64.0,VALID,0.18,
2018-10-26, 00:20:06,VALID,919.981,VALID,0.0,VALID,98.805,VALID,-0.036,VALID,20.02,INVALID,360.0,VALID,0.058,
2018-10-26, 00:21:06,VALID,919.968,VALID,0.0,VALID,98.803,VALID,-0.023,VALID,20.028,INVALID,360.0,VALID,0.0,
2018-10-26, 00:22:06,VALID,919.973,VALID,0.0,VALID,98.785,VALID,-0.025,VALID,20.021,INVALID,360.0,VALID,0.0,
2018-10-26, 00:23:06,VALID,919.962,VALID,0.0,VALID,98.756,VALID,-0.011,VALID,20.004,INVALID,360.0,VALID,0.0,
2018-10-26, 00:24:06,VALID,919.95,VALID,0.0,VALID,98.774,VALID,-0.026,VALID,20.01,INVALID,360.0,VALID,0.0,
2018-10-26, 00:25:06,VALID,919.953,VALID,0.0,VALID,98.752,VALID,-0.051,VALID,20.01,INVALID,360.0,VALID,0.0,
2018-10-26, 00:26:06,VALID,919.941,VALID,0.0,VALID,98.76,VALID,-0.045,VALID,20.012,INVALID,360.0,VALID,0.0,
2018-10-26, 00:27:06,VALID,919.935,VALID,0.0,VALID,98.73,VALID,-0.035,VALID,19.996,INVALID,360.0,VALID,0.0,
2018-10-26, 00:28:06,VALID,919.936,VALID,0.0,VALID,98.701,VALID,-0.032,VALID,19.985,INVALID,360.0,VALID,0.0,
2018-10-26, 00:29:06,VALID,919.906,VALID,0.0,VALID,98.676,VALID,-0.036,VALID,19.967,INVALID,360.0,VALID,0.0,
2018-10-26, 00:30:06,VALID,919.919,VALID,0.0,VALID,98.676,VALID,-0.043,VALID,19.965,INVALID,360.0,VALID,0.0,
2018-10-26, 00:31:06,VALID,919.9,VALID,0.0,VALID,98.685,VALID,-0.039,VALID,19.965,INVALID,360.0,VALID,0.34,
2018-10-26, 00:32:06,VALID,919.892,VALID,0.0,VALID,98.67,VALID,-0.034,VALID,19.958,VALID,50.0,VALID,0.666,
2018-10-26, 00:33:06,VALID,919.86,VALID,0.0,VALID,98.68,VALID,-0.035,VALID,19.949,VALID,52.0,VALID,0.623,
2018-10-26, 00:34:06,VALID,919.859,VALID,0.0,VALID,98.713,VALID,-0.041,VALID,19.948,VALID,71.0,VALID,0.552,
2018-10-26, 00:35:06,VALID,919.847,VALID,0.0,VALID,98.693,VALID,-0.044,VALID,19.939,VALID,88.0,VALID,0.845,
2018-10-26, 00:36:06,VALID,919.823,VALID,0.0,VALID,98.719,VALID,-0.039,VALID,19.933,VALID,81.0,VALID,0.788,
2018-10-26, 00:37:06,VALID,919.818,VALID,0.0,VALID,98.715,VALID,-0.036,VALID,19.926,VALID,89.0,VALID,0.848,
2018-10-26, 00:38:06,VALID,919.789,VALID,0.0,VALID,98.741,VALID,-0.025,VALID,19.919,VALID,88.0,VALID,1.098,
2018-10-26, 00:39:06,VALID,919.768,VALID,0.0,VALID,98.726,VALID,-0.014,VALID,19.917,VALID,97.0,VALID,0.873,
2018-10-26, 00:40:06,VALID,919.765,VALID,0.0,VALID,98.75,VALID,-0.021,VALID,19.923,VALID,99.0,VALID,0.99,
2018-10-26, 00:41:06,VALID,919.76,VALID,0.0,VALID,98.77,VALID,-0.011,VALID,19.924,VALID,108.0,VALID,0.982,
2018-10-26, 00:42:06,VALID,919.733,VALID,0.0,VALID,98.775,VALID,0.003,VALID,19.921,VALID,112.0,VALID,1.073,
2018-10-26, 00:43:06,VALID,919.727,VALID,0.0,VALID,98.823,VALID,-0.004,VALID,19.939,VALID,121.0,VALID,0.989,
2018-10-26, 00:44:06,VALID,919.707,VALID,0.0,VALID,98.848,VALID,-0.002,VALID,19.952,VALID,118.0,VALID,1.109,
2018-10-26, 00:45:06,VALID,919.709,VALID,0.0,VALID,98.874,VALID,0.006,VALID,19.941,VALID,117.0,VALID,1.22,
2018-10-26, 00:46:06,VALID,919.698,VALID,0.0,VALID,98.885,VALID,-0.013,VALID,19.928,VALID,113.0,VALID,1.2,
2018-10-26, 00:47:06,VALID,919.689,VALID,0.0,VALID,98.878,VALID,-0.003,VALID,19.902,VALID,114.0,VALID,1.032,
2018-10-26, 00:48:06,VALID,919.678,VALID,0.0,VALID,98.904,VALID,0.008,VALID,19.9,VALID,112.0,VALID,0.986,
2018-10-26, 00:49:06,VALID,919.669,VALID,0.0,VALID,98.943,VALID,-0.004,VALID,19.905,VALID,105.0,VALID,0.823,
2018-10-26, 00:50:06,VALID,919.651,VALID,0.0,VALID,98.957,VALID,0.011,VALID,19.901,VALID,107.0,VALID,0.663,
2018-10-26, 00:51:06,VALID,919.656,VALID,0.0,VALID,98.958,VALID,0.013,VALID,19.889,VALID,111.0,VALID,0.749,
2018-10-26, 00:52:06,VALID,919.636,VALID,0.0,VALID,98.972,VALID,0.013,VALID,19.876,VALID,106.0,VALID,0.73,
2018-10-26, 00:53:06,VALID,919.626,VALID,0.0,VALID,98.993,VALID,0.01,VALID,19.851,VALID,102.0,VALID,0.778,
2018-10-26, 00:54:06,VALID,919.61,VALID,0.0,VALID,98.996,VALID,0.001,VALID,19.825,VALID,100.0,VALID,0.794,
2018-10-26, 00:55:06,VALID,919.597,VALID,0.0,VALID,98.99,VALID,0.011,VALID,19.816,VALID,105.0,VALID,0.668,
2018-10-26, 00:56:06,VALID,919.588,VALID,0.0,VALID,98.965,VALID,-0.01,VALID,19.813,VALID,108.0,VALID,0.597,
2018-10-26, 00:57:06,VALID,919.581,VALID,0.0,VALID,98.998,VALID,0.005,VALID,19.829,VALID,110.0,VALID,0.536,
2018-10-26, 00:58:06,VALID,919.57,VALID,0.0,VALID,99.0,VALID,-0.005,VALID,19.829,VALID,110.0,VALID,0.531,
2018-10-26, 00:59:06,VALID,919.547,VALID,0.0,VALID,99.009,VALID,0.0,VALID,19.83,VALID,91.0,VALID,0.364,
2018-10-26, 01:00:06,VALID,919.552,VALID,0.0,VALID,99.01,VALID,0.004,VALID,19.829,VALID,92.0,VALID,0.429,
2018-10-26, 01:01:06,VALID,919.56,VALID,0.0,VALID,99.021,VALID,0.014,VALID,19.823,VALID,92.0,VALID,0.415,
2018-10-26, 01:02:06,VALID,919.554,VALID,0.0,VALID,99.041,VALID,-0.015,VALID,19.831,VALID,71.0,VALID,0.353,
2018-10-26, 01:03:06,VALID,919.524,VALID,0.0,VALID,99.041,VALID,-0.01,VALID,19.825,VALID,64.0,VALID,0.483,
2018-10-26, 01:04:06,VALID,919.51,VALID,0.0,VALID,99.023,VALID,-0.006,VALID,19.793,VALID,62.0,VALID,0.51,
2018-10-26, 01:05:06,VALID,919.509,VALID,0.0,VALID,99.032,VALID,0.002,VALID,19.771,VALID,58.0,VALID,0.484,
2018-10-26, 01:06:06,VALID,919.502,VALID,0.0,VALID,99.035,VALID,-0.004,VALID,19.762,VALID,47.0,VALID,0.478,
2018-10-26, 01:07:06,VALID,919.472,VALID,0.0,VALID,99.051,VALID,0.003,VALID,19.752,VALID,47.0,VALID,0.49,
2018-10-26, 01:08:06,VALID,919.48,VALID,0.0,VALID,99.021,VALID,0.0,VALID,19.755,VALID,45.0,VALID,0.493,
2018-10-26, 01:09:06,VALID,919.481,VALID,0.0,VALID,98.993,VALID,-0.013,VALID,19.738,VALID,37.0,VALID,0.506,
2018-10-26, 01:10:06,VALID,919.472,VALID,0.0,VALID,98.991,VALID,-0.019,VALID,19.725,VALID,32.0,VALID,0.619,
2018-10-26, 01:11:06,VALID,919.47,VALID,0.0,VALID,98.971,VALID,-0.015,VALID,19.735,VALID,34.0,VALID,0.432,
2018-10-26, 01:12:06,VALID,919.445,VALID,0.0,VALID,98.938,VALID,-0.013,VALID,19.721,VALID,42.0,VALID,0.36,
2018-10-26, 01:13:06,VALID,919.447,VALID,0.0,VALID,98.918,VALID,-0.025,VALID,19.713,VALID,43.0,VALID,0.478,
2018-10-26, 01:14:06,VALID,919.427,VALID,0.0,VALID,98.865,VALID,-0.038,VALID,19.704,VALID,52.0,VALID,0.562,
2018-10-26, 01:15:06,VALID,919.434,VALID,0.0,VALID,98.819,VALID,-0.022,VALID,19.702,VALID,60.0,VALID,0.575,
2018-10-26, 01:16:06,VALID,919.428,VALID,0.0,VALID,98.771,VALID,-0.027,VALID,19.702,VALID,65.0,VALID,0.638,
2018-10-26, 01:17:06,VALID,919.409,VALID,0.0,VALID,98.739,VALID,-0.021,VALID,19.696,VALID,71.0,VALID,0.839,
2018-10-26, 01:18:06,VALID,919.421,VALID,0.0,VALID,98.71,VALID,-0.041,VALID,19.692,VALID,80.0,VALID,0.934,
2018-10-26, 01:19:06,VALID,919.389,VALID,0.0,VALID,98.705,VALID,-0.021,VALID,19.695,VALID,88.0,VALID,0.827,
2018-10-26, 01:20:06,VALID,919.409,VALID,0.0,VALID,98.668,VALID,-0.028,VALID,19.677,VALID,97.0,VALID,1.204,
2018-10-26, 01:21:06,VALID,919.374,VALID,0.0,VALID,98.64,VALID,-0.039,VALID,19.67,VALID,95.0,VALID,1.068,
2018-10-26, 01:22:06,VALID,919.356,VALID,0.0,VALID,98.596,VALID,-0.034,VALID,19.658,VALID,102.0,VALID,1.34,
2018-10-26, 01:23:06,VALID,919.364,VALID,0.0,VALID,98.553,VALID,-0.029,VALID,19.664,VALID,103.0,VALID,1.286,
2018-10-26, 01:24:06,VALID,919.352,VALID,0.0,VALID,98.506,VALID,-0.023,VALID,19.68,VALID,114.0,VALID,1.18,
2018-10-26, 01:25:06,VALID,919.351,VALID,0.0,VALID,98.497,VALID,-0.016,VALID,19.702,VALID,131.0,VALID,1.011,
2018-10-26, 01:26:06,VALID,919.326,VALID,0.0,VALID,98.463,VALID,-0.023,VALID,19.706,VALID,111.0,VALID,1.387,
2018-10-26, 01:27:06,VALID,919.331,VALID,0.0,VALID,98.405,VALID,-0.035,VALID,19.709,VALID,118.0,VALID,1.101,
2018-10-26, 01:28:06,VALID,919.32,VALID,0.0,VALID,98.382,VALID,-0.034,VALID,19.722,VALID,119.0,VALID,1.276,
2018-10-26, 01:29:06,VALID,919.323,VALID,0.0,VALID,98.334,VALID,-0.026,VALID,19.714,VALID,106.0,VALID,1.214,
2018-10-26, 01:30:06,VALID,919.337,VALID,0.0,VALID,98.277,VALID,-0.042,VALID,19.713,VALID,100.0,VALID,1.004,
2018-10-26, 01:31:06,VALID,919.309,VALID,0.0,VALID,98.23,VALID,-0.026,VALID,19.708,VALID,93.0,VALID,0.894,
2018-10-26, 01:32:06,VALID,919.327,VALID,0.0,VALID,98.167,VALID,-0.041,VALID,19.707,VALID,107.0,VALID,0.589,
2018-10-26, 01:33:06,VALID,919.318,VALID,0.0,VALID,98.146,VALID,-0.019,VALID,19.706,VALID,116.0,VALID,0.988,
2018-10-26, 01:34:06,VALID,919.314,VALID,0.0,VALID,98.155,VALID,-0.015,VALID,19.724,VALID,126.0,VALID,0.916,
2018-10-26, 01:35:06,VALID,919.319,VALID,0.0,VALID,98.108,VALID,-0.027,VALID,19.724,VALID,116.0,VALID,1.297,
2018-10-26, 01:36:06,VALID,919.316,VALID,0.0,VALID,98.036,VALID,-0.014,VALID,19.736,VALID,116.0,VALID,0.662,
2018-10-26, 01:37:06,VALID,919.336,VALID,0.0,VALID,98.01,VALID,-0.025,VALID,19.744,VALID,112.0,VALID,0.736,
2018-10-26, 01:38:06,VALID,919.336,VALID,0.0,VALID,97.971,VALID,-0.016,VALID,19.731,VALID,115.0,VALID,0.594,
2018-10-26, 01:39:06,VALID,919.318,VALID,0.0,VALID,97.966,VALID,-0.009,VALID,19.726,INVALID,360.0,VALID,0.309,
2018-10-26, 01:40:06,VALID,919.323,VALID,0.0,VALID,98.001,VALID,0.003,VALID,19.741,INVALID,360.0,VALID,0.131,
2018-10-26, 01:41:06,VALID,919.299,VALID,0.0,VALID,98.099,VALID,0.002,VALID,19.775,INVALID,360.0,VALID,0.0,
2018-10-26, 01:42:06,VALID,919.293,VALID,0.0,VALID,98.12,VALID,0.005,VALID,19.776,INVALID,360.0,VALID,0.021,
2018-10-26, 01:43:06,VALID,919.315,VALID,0.0,VALID,98.128,VALID,0.012,VALID,19.766,INVALID,360.0,VALID,0.017,
2018-10-26, 01:44:06,VALID,919.312,VALID,0.0,VALID,98.136,VALID,0.009,VALID,19.771,INVALID,360.0,VALID,0.0,
2018-10-26, 01:45:06,VALID,919.315,VALID,0.0,VALID,98.088,VALID,0.015,VALID,19.759,INVALID,360.0,VALID,0.033,
2018-10-26, 01:46:06,VALID,919.324,VALID,0.0,VALID,98.095,VALID,0.004,VALID,19.755,INVALID,360.0,VALID,0.0,
2018-10-26, 01:47:06,VALID,919.324,VALID,0.0,VALID,98.053,VALID,0.003,VALID,19.74,VALID,112.0,VALID,0.495,
2018-10-26, 01:48:06,VALID,919.311,VALID,0.0,VALID,97.992,VALID,-0.011,VALID,19.721,VALID,110.0,VALID,0.388,
2018-10-26, 01:49:06,VALID,919.299,VALID,0.0,VALID,98.02,VALID,0.002,VALID,19.722,INVALID,360.0,VALID,0.038,
2018-10-26, 01:50:06,VALID,919.285,VALID,0.0,VALID,98.015,VALID,0.003,VALID,19.729,INVALID,360.0,VALID,0.078,
2018-10-26, 01:51:06,VALID,919.268,VALID,0.0,VALID,97.931,VALID,-0.005,VALID,19.707,VALID,106.0,VALID,0.559,
2018-10-26, 01:52:06,VALID,919.27,VALID,0.0,VALID,97.851,VALID,-0.011,VALID,19.688,INVALID,360.0,VALID,0.131,
2018-10-26, 01:53:06,VALID,919.246,VALID,0.0,VALID,97.813,VALID,-0.014,VALID,19.679,INVALID,360.0,VALID,0.0,
2018-10-26, 01:54:06,VALID,919.212,VALID,0.0,VALID,97.843,VALID,-0.012,VALID,19.688,INVALID,360.0,VALID,0.249,
2018-10-26, 01:55:06,VALID,919.186,VALID,0.0,VALID,97.889,VALID,0.004,VALID,19.716,INVALID,360.0,VALID,0.055,
2018-10-26, 01:56:06,VALID,919.176,VALID,0.0,VALID,97.858,VALID,0.022,VALID,19.715,INVALID,360.0,VALID,0.221,
2018-10-26, 01:57:06,VALID,919.154,VALID,0.0,VALID,97.853,VALID,0.004,VALID,19.721,INVALID,360.0,VALID,0.022,
2018-10-26, 01:58:06,VALID,919.14,VALID,0.0,VALID,97.75,VALID,0.01,VALID,19.703,INVALID,360.0,VALID,0.0,
2018-10-26, 01:59:06,VALID,919.12,VALID,0.0,VALID,97.64,VALID,-0.001,VALID,19.693,INVALID,360.0,VALID,0.0,
2018-10-26, 02:00:06,VALID,919.111,VALID,0.0,VALID,97.577,VALID,0.013,VALID,19.691,INVALID,360.0,VALID,0.0,
2018-10-26, 02:01:06,VALID,919.12,VALID,0.0,VALID,97.532,VALID,-0.007,VALID,19.69,INVALID,360.0,VALID,0.0,
2018-10-26, 02:02:06,VALID,919.098,VALID,0.0,VALID,97.477,VALID,0.006,VALID,19.691,INVALID,360.0,VALID,0.0,
2018-10-26, 02:03:06,VALID,919.071,VALID,0.0,VALID,97.443,VALID,0.009,VALID,19.691,INVALID,360.0,VALID,0.0,
2018-10-26, 02:04:06,VALID,919.086,VALID,0.0,VALID,97.476,VALID,0.005,VALID,19.695,INVALID,360.0,VALID,0.0,
2018-10-26, 02:05:06,VALID,919.067,VALID,0.0,VALID,97.497,VALID,-0.021,VALID,19.698,INVALID,360.0,VALID,0.0,
2018-10-26, 02:06:06,VALID,919.049,VALID,0.0,VALID,97.466,VALID,-0.001,VALID,19.686,INVALID,360.0,VALID,0.0,
2018-10-26, 02:07:06,VALID,919.061,VALID,0.0,VALID,97.424,VALID,-0.014,VALID,19.677,INVALID,360.0,VALID,0.0,
2018-10-26, 02:08:06,VALID,919.035,VALID,0.0,VALID,97.423,VALID,-0.002,VALID,19.678,INVALID,360.0,VALID,0.0,
2018-10-26, 02:09:06,VALID,919.027,VALID,0.0,VALID,97.44,VALID,0.009,VALID,19.679,INVALID,360.0,VALID,0.0,
2018-10-26, 02:10:06,VALID,919.031,VALID,0.0,VALID,97.427,VALID,0.016,VALID,19.674,INVALID,360.0,VALID,0.0,
2018-10-26, 02:11:06,VALID,919.015,VALID,0.0,VALID,97.467,VALID,0.023,VALID,19.673,INVALID,360.0,VALID,0.0,
2018-10-26, 02:12:06,VALID,918.999,VALID,0.0,VALID,97.499,VALID,0.031,VALID,19.674,INVALID,360.0,VALID,0.0,
2018-10-26, 02:13:06,VALID,918.991,VALID,0.0,VALID,97.474,VALID,0.022,VALID,19.66,INVALID,360.0,VALID,0.0,
2018-10-26, 02:14:06,VALID,918.977,VALID,0.0,VALID,97.467,VALID,0.019,VALID,19.651,INVALID,360.0,VALID,0.0,
2018-10-26, 02:15:06,VALID,918.957,VALID,0.0,VALID,97.484,VALID,0.01,VALID,19.655,INVALID,360.0,VALID,0.0,
2018-10-26, 02:16:06,VALID,918.967,VALID,0.0,VALID,97.483,VALID,-0.016,VALID,19.656,INVALID,360.0,VALID,0.0,
2018-10-26, 02:17:06,VALID,918.959,VALID,0.0,VALID,97.46,VALID,0.026,VALID,19.653,INVALID,360.0,VALID,0.0,
2018-10-26, 02:18:06,VALID,918.944,VALID,0.0,VALID,97.457,VALID,0.011,VALID,19.641,INVALID,360.0,VALID,0.0,
2018-10-26, 02:19:06,VALID,918.924,VALID,0.0,VALID,97.52,VALID,0.019,VALID,19.63,INVALID,360.0,VALID,0.0,
2018-10-26, 02:20:06,VALID,918.932,VALID,0.0,VALID,97.543,VALID,0.003,VALID,19.621,INVALID,360.0,VALID,0.0,
2018-10-26, 02:21:06,VALID,918.909,VALID,0.0,VALID,97.519,VALID,0.014,VALID,19.622,INVALID,360.0,VALID,0.0,
2018-10-26, 02:22:06,VALID,918.91,VALID,0.0,VALID,97.488,VALID,0.013,VALID,19.617,INVALID,360.0,VALID,0.0,
2018-10-26, 02:23:06,VALID,918.898,VALID,0.0,VALID,97.475,VALID,-0.007,VALID,19.611,INVALID,360.0,VALID,0.0,
2018-10-26, 02:24:06,VALID,918.894,VALID,0.0,VALID,97.541,VALID,-0.0,VALID,19.61,INVALID,360.0,VALID,0.0,
2018-10-26, 02:25:06,VALID,918.875,VALID,0.0,VALID,97.547,VALID,0.008,VALID,19.585,INVALID,360.0,VALID,0.0,
2018-10-26, 02:26:06,VALID,918.865,VALID,0.0,VALID,97.649,VALID,-0.003,VALID,19.573,INVALID,360.0,VALID,0.0,
2018-10-26, 02:27:06,VALID,918.842,VALID,0.0,VALID,97.724,VALID,0.017,VALID,19.558,INVALID,360.0,VALID,0.0,
2018-10-26, 02:28:06,VALID,918.848,VALID,0.0,VALID,97.777,VALID,0.011,VALID,19.545,INVALID,360.0,VALID,0.0,
2018-10-26, 02:29:06,VALID,918.849,VALID,0.0,VALID,97.836,VALID,0.009,VALID,19.519,INVALID,360.0,VALID,0.0,
2018-10-26, 02:30:06,VALID,918.838,VALID,0.0,VALID,97.936,VALID,-0.001,VALID,19.52,INVALID,360.0,VALID,0.0,
2018-10-26, 02:31:06,VALID,918.838,VALID,0.0,VALID,98.085,VALID,0.004,VALID,19.527,INVALID,360.0,VALID,0.0,
2018-10-26, 02:32:06,VALID,918.818,VALID,0.0,VALID,98.189,VALID,-0.005,VALID,19.536,INVALID,360.0,VALID,0.0,
2018-10-26, 02:33:06,VALID,918.818,VALID,0.0,VALID,98.293,VALID,0.011,VALID,19.544,INVALID,360.0,VALID,0.0,
2018-10-26, 02:34:06,VALID,918.795,VALID,0.0,VALID,98.386,VALID,0.01,VALID,19.539,INVALID,360.0,VALID,0.0,
2018-10-26, 02:35:06,VALID,918.794,VALID,0.0,VALID,98.448,VALID,0.021,VALID,19.517,INVALID,360.0,VALID,0.0,
2018-10-26, 02:36:06,VALID,918.765,VALID,0.0,VALID,98.495,VALID,0.016,VALID,19.508,INVALID,360.0,VALID,0.0,
2018-10-26, 02:37:06,VALID,918.75,VALID,0.0,VALID,98.569,VALID,0.004,VALID,19.499,INVALID,360.0,VALID,0.0,
2018-10-26, 02:38:06,VALID,918.738,VALID,0.0,VALID,98.558,VALID,-0.004,VALID,19.464,INVALID,360.0,VALID,0.0,
2018-10-26, 02:39:06,VALID,918.706,VALID,0.0,VALID,98.592,VALID,-0.025,VALID,19.445,INVALID,360.0,VALID,0.0,
2018-10-26, 02:40:06,VALID,918.688,VALID,0.0,VALID,98.629,VALID,-0.036,VALID,19.44,INVALID,360.0,VALID,0.0,
2018-10-26, 02:41:06,VALID,918.675,VALID,0.0,VALID,98.617,VALID,-0.023,VALID,19.41,INVALID,360.0,VALID,0.0,
2018-10-26, 02:42:06,VALID,918.658,VALID,0.0,VALID,98.631,VALID,-0.02,VALID,19.388,INVALID,360.0,VALID,0.0,
2018-10-26, 02:43:06,VALID,918.657,VALID,0.0,VALID,98.67,VALID,-0.025,VALID,19.39,INVALID,360.0,VALID,0.0,
2018-10-26, 02:44:06,VALID,918.649,VALID,0.0,VALID,98.68,VALID,-0.032,VALID,19.385,INVALID,360.0,VALID,0.0,
2018-10-26, 02:45:06,VALID,918.64,VALID,0.0,VALID,98.743,VALID,-0.024,VALID,19.402,INVALID,360.0,VALID,0.0,
2018-10-26, 02:46:06,VALID,918.654,VALID,0.0,VALID,98.762,VALID,-0.011,VALID,19.407,INVALID,360.0,VALID,0.0,
2018-10-26, 02:47:06,VALID,918.656,VALID,0.0,VALID,98.767,VALID,-0.038,VALID,19.388,INVALID,360.0,VALID,0.0,
2018-10-26, 02:48:06,VALID,918.652,VALID,0.0,VALID,98.781,VALID,-0.026,VALID,19.393,INVALID,360.0,VALID,0.0,
2018-10-26, 02:49:06,VALID,918.664,VALID,0.0,VALID,98.775,VALID,-0.021,VALID,19.394,VALID,89.0,VALID,0.926,
2018-10-26, 02:50:06,VALID,918.668,VALID,0.0,VALID,98.79,VALID,0.002,VALID,19.405,VALID,93.0,VALID,0.798,
2018-10-26, 02:51:06,VALID,918.65,VALID,0.0,VALID,98.744,VALID,-0.021,VALID,19.406,VALID,93.0,VALID,0.682,
2018-10-26, 02:52:06,VALID,918.655,VALID,0.0,VALID,98.741,VALID,-0.024,VALID,19.408,VALID,99.0,VALID,0.93,
2018-10-26, 02:53:06,VALID,918.633,VALID,0.0,VALID,98.738,VALID,-0.011,VALID,19.421,VALID,97.0,VALID,0.766,
2018-10-26, 02:54:06,VALID,918.633,VALID,0.0,VALID,98.712,VALID,-0.009,VALID,19.426,VALID,100.0,VALID,0.962,
2018-10-26, 02:55:06,VALID,918.61,VALID,0.0,VALID,98.701,VALID,-0.018,VALID,19.429,VALID,96.0,VALID,0.848,
2018-10-26, 02:56:06,VALID,918.587,VALID,0.0,VALID,98.682,VALID,-0.023,VALID,19.427,VALID,110.0,VALID,0.264,
2018-10-26, 02:57:06,VALID,918.559,VALID,0.0,VALID,98.664,VALID,-0.025,VALID,19.425,INVALID,360.0,VALID,0.175,
2018-10-26, 02:58:06,VALID,918.543,VALID,0.0,VALID,98.67,VALID,-0.024,VALID,19.436,INVALID,360.0,VALID,0.177,
2018-10-26, 02:59:06,VALID,918.542,VALID,0.0,VALID,98.678,VALID,-0.033,VALID,19.431,VALID,101.0,VALID,0.561,
2018-10-26, 03:00:06,VALID,918.535,VALID,0.0,VALID,98.674,VALID,-0.037,VALID,19.414,VALID,99.0,VALID,0.277,
2018-10-26, 03:01:06,VALID,918.512,VALID,0.0,VALID,98.639,VALID,-0.015,VALID,19.383,INVALID,360.0,VALID,0.0,
2018-10-26, 03:02:06,VALID,918.517,VALID,0.0,VALID,98.608,VALID,-0.026,VALID,19.354,INVALID,360.0,VALID,0.0,
2018-10-26, 03:03:06,VALID,918.512,VALID,0.0,VALID,98.591,VALID,-0.017,VALID,19.338,INVALID,360.0,VALID,0.307,
2018-10-26, 03:04:06,VALID,918.507,VALID,0.0,VALID,98.605,VALID,-0.035,VALID,19.349,VALID,105.0,VALID,0.676,
2018-10-26, 03:05:06,VALID,918.489,VALID,0.0,VALID,98.613,VALID,-0.034,VALID,19.366,VALID,115.0,VALID,0.718,
2018-10-26, 03:06:06,VALID,918.494,VALID,0.0,VALID,98.606,VALID,-0.005,VALID,19.387,INVALID,360.0,VALID,0.211,
2018-10-26, 03:07:06,VALID,918.486,VALID,0.0,VALID,98.595,VALID,-0.007,VALID,19.395,INVALID,360.0,VALID,0.131,
2018-10-26, 03:08:06,VALID,918.473,VALID,0.0,VALID,98.602,VALID,-0.022,VALID,19.407,INVALID,360.0,VALID,0.024,
2018-10-26, 03:09:06,VALID,918.481,VALID,0.0,VALID,98.619,VALID,0.029,VALID,19.416,INVALID,360.0,VALID,0.0,
2018-10-26, 03:10:06,VALID,918.465,VALID,0.0,VALID,98.634,VALID,0.036,VALID,19.428,INVALID,360.0,VALID,0.0,
2018-10-26, 03:11:06,VALID,918.485,VALID,0.0,VALID,98.651,VALID,0.028,VALID,19.423,INVALID,360.0,VALID,0.0,
2018-10-26, 03:12:06,VALID,918.487,VALID,0.0,VALID,98.65,VALID,0.022,VALID,19.414,INVALID,360.0,VALID,0.0,
2018-10-26, 03:13:06,VALID,918.483,VALID,0.0,VALID,98.665,VALID,0.007,VALID,19.399,INVALID,360.0,VALID,0.0,
2018-10-26, 03:14:06,VALID,918.489,VALID,0.0,VALID,98.656,VALID,0.014,VALID,19.393,INVALID,360.0,VALID,0.0,
2018-10-26, 03:15:06,VALID,918.473,VALID,0.0,VALID,98.644,VALID,-0.002,VALID,19.372,INVALID,360.0,VALID,0.0,
2018-10-26, 03:16:06,VALID,918.478,VALID,0.0,VALID,98.625,VALID,-0.007,VALID,19.349,INVALID,360.0,VALID,0.0,
2018-10-26, 03:17:06,VALID,918.462,VALID,0.0,VALID,98.644,VALID,0.016,VALID,19.355,INVALID,360.0,VALID,0.0,
2018-10-26, 03:18:06,VALID,918.458,VALID,0.0,VALID,98.66,VALID,0.021,VALID,19.354,INVALID,360.0,VALID,0.0,
2018-10-26, 03:19:06,VALID,918.451,VALID,0.0,VALID,98.637,VALID,0.02,VALID,19.329,INVALID,360.0,VALID,0.0,
2018-10-26, 03:20:06,VALID,918.451,VALID,0.0,VALID,98.608,VALID,0.014,VALID,19.302,INVALID,360.0,VALID,0.0,
2018-10-26, 03:21:06,VALID,918.456,VALID,0.0,VALID,98.588,VALID,0.023,VALID,19.295,INVALID,360.0,VALID,0.25,
2018-10-26, 03:22:06,VALID,918.47,VALID,0.0,VALID,98.575,VALID,0.016,VALID,19.285,VALID,86.0,VALID,0.369,
2018-10-26, 03:23:06,VALID,918.494,VALID,0.0,VALID,98.483,VALID,0.005,VALID,19.249,INVALID,360.0,VALID,0.0,
2018-10-26, 03:24:06,VALID,918.473,VALID,0.0,VALID,98.501,VALID,-0.008,VALID,19.252,INVALID,360.0,VALID,0.0,
2018-10-26, 03:25:06,VALID,918.497,VALID,0.0,VALID,98.516,VALID,-0.032,VALID,19.261,INVALID,360.0,VALID,0.0,
2018-10-26, 03:26:06,VALID,918.506,VALID,0.0,VALID,98.459,VALID,-0.027,VALID,19.233,INVALID,360.0,VALID,0.0,
2018-10-26, 03:27:06,VALID,918.52,VALID,0.0,VALID,98.4,VALID,-0.029,VALID,19.202,INVALID,360.0,VALID,0.0,
2018-10-26, 03:28:06,VALID,918.538,VALID,0.0,VALID,98.397,VALID,-0.012,VALID,19.194,INVALID,360.0,VALID,0.0,
2018-10-26, 03:29:06,VALID,918.552,VALID,0.0,VALID,98.387,VALID,-0.021,VALID,19.192,VALID,65.0,VALID,0.0,
2018-10-26, 03:30:06,VALID,918.56,VALID,0.0,VALID,98.358,VALID,-0.032,VALID,19.179,VALID,65.0,VALID,0.117,
2018-10-26, 03:31:06,VALID,918.56,VALID,0.0,VALID,98.348,VALID,-0.025,VALID,19.172,VALID,65.0,VALID,0.004,
2018-10-26, 03:32:06,VALID,918.571,VALID,0.0,VALID,98.319,VALID,-0.025,VALID,19.154,VALID,65.0,VALID,0.0,
2018-10-26, 03:33:06,VALID,918.587,VALID,0.0,VALID,98.321,VALID,-0.013,VALID,19.153,VALID,65.0,VALID,0.0,
2018-10-26, 03:34:06,VALID,918.59,VALID,0.0,VALID,98.309,VALID,-0.018,VALID,19.144,VALID,65.0,VALID,0.0,
2018-10-26, 03:35:06,VALID,918.587,VALID,0.0,VALID,98.266,VALID,-0.025,VALID,19.121,VALID,65.0,VALID,0.0,
2018-10-26, 03:36:06,VALID,918.606,VALID,0.0,VALID,98.229,VALID,-0.007,VALID,19.084,VALID,65.0,VALID,0.0,
2018-10-26, 03:37:06,VALID,918.613,VALID,0.0,VALID,98.204,VALID,-0.005,VALID,19.07,INVALID,360.0,VALID,0.0,
2018-10-26, 03:38:06,VALID,918.648,VALID,0.0,VALID,98.256,VALID,-0.019,VALID,19.083,INVALID,360.0,VALID,0.0,